Dewpoint
23 19 15 16 17 19 21 13 12 11 12 12 12 10 9 8 7 9 11 10 13 9 8 7 8 6 6 8 16 21 27 44 46 49 50 51 52 55 57 59 59 59 59 59 60 60 61 62 63 63 63 62 63 63 64 63 63 63 62 62 62 63 64 64 64 64 64 63 63 63 63 63 65 65 66 66 65 65 65 65 65 65 65 64 64 65
23 21 20 18 16 17 19 19 22 18 18 10 11 11 8 10 8 9 9 13 14 19 11 10 8 7 8 14 20 23 21 22 31 45 48 49 50 53 56 58 58 58 57 59 60 60 60 62 63 63 62 63 62 63 63 63 63 63 62 62 63 64 65 64 64 64 64 64 64 63 63 64 65 65 65 65 65 64 65 65 65 65 64 64 64 65
22 21 22 21 17 22 25 27 25 20 20 18 11 12 14 12 11 13 17 21 13 12 12 10 6 7 11 22 29 28 28 35 39 33 38 46 48 50 53 55 56 56 56 58 59 59 60 62 63 63 62 62 62 63 63 63 63 63 62 63 64 64 64 65 64 64 63 64 64 64 64 65 64 65 65 65 66 65 65 65 65 64 64 64 65 65
22 21 21 21 20 20 21 22 23 24 24 18 19 15 13 14 16 14 23 21 12 19 17 13 7 15 28 28 32 35 39 45 47 50 51 43 47 48 51 54 56 55 55 56 58 59 60 61 62 62 62 62 62 62 62 62 62 63 63 63 64 65 65 65 64 64 63 64 63 63 63 64 64 63 65 64 64 65 64 63 64 64 64 65 65 65
20 21 21 20 18 17 21 23 21 17 14 25 23 17 17 18 17 16 18 19 24 19 27 15 24 18 25 24 31 40 45 48 49 51 52 54 56 51 50 51 56 56 55 56 58 59 59 60 61 62 62 62 62 62 62 62 62 63 63 63 65 65 65 65 65 64 63 63 63 63 63 63 63 63 63 63 63 64 64 63 63 63 65 65 64 65
23 24 20 18 17 16 18 19 21 19 14 18 26 17 14 16 17 16 20 16 16 16 20 12 9 11 21 30 36 42 46 48 50 52 52 54 55 56 56 55 51 54 56 56 57 58 59 60 61 61 62 62 62 62 62 63 63 63 64 65 65 65 65 65 65 64 64 64 63 62 62 61 61 61 61 61 61 62 63 63 64 64 64 64 64 64
24 26 22 17 17 15 14 14 18 17 16 14 15 22 17 15 18 16 14 17 11 10 20 25 14 8 21 33 33 35 45 48 50 52 53 53 54 55 56 56 56 55 54 55 57 58 59 60 61 61 61 62 62 63 63 64 65 65 65 65 65 65 65 65 65 64 64 64 64 63 62 62 62 61 61 62 62 63 63 64 64 64 64 64 64 64
22 22 22 20 19 15 16 14 17 15 16 14 18 23 20 17 15 16 13 12 14 25 27 21 20 11 15 31 32 38 43 47 49 51 52 53 53 54 55 57 57 57 58 59 59 59 59 60 60 60 61 62 63 63 64 65 65 64 65 65 65 65 64 64 65 64 64 63 64 63 63 62 62 61 61 61 61 62 62 63 64 63 64 64 64 64
27 24 23 21 21 16 14 14 17 15 13 15 16 19 18 15 14 13 15 16 16 17 9 19 21 11 14 28 38 40 42 45 48 50 52 53 53 53 54 54 55 56 56 57 57 59 60 60 60 60 60 61 61 62 62 63 63 63 64 65 65 65 64 64 64 64 64 64 64 63 63 62 62 61 59 60 61 61 62 63 63 63 63 63 63 64
20 21 20 19 18 17 16 15 17 14 13 13 18 19 20 19 21 12 16 14 18 12 9 14 20 11 18 33 40 41 40 44 47 50 52 53 53 53 53 54 54 55 56 56 56 57 57 58 57 57 58 58 58 59 59 60 61 61 62 63 64 65 64 64 64 64 64 64 63 63 62 62 62 61 59 60 61 61 62 62 62 62 63 62 62 63
18 28 27 17 16 17 17 17 16 15 13 18 16 13 12 21 23 28 24 21 16 7 12 19 24 14 18 34 41 42 43 45 48 50 51 52 52 53 53 53 54 54 55 55 55 56 57 58 58 58 57 58 58 58 58 58 59 60 61 62 61 63 64 64 64 64 64 63 63 62 62 61 60 60 59 59 61 62 62 62 62 62 62 63 62 63
20 17 15 13 22 18 17 16 16 17 15 13 14 13 12 13 19 18 20 20 9 9 17 19 20 18 19 33 43 48 49 49 49 49 50 51 51 52 52 53 53 53 53 53 53 53 54 55 56 57 57 57 57 57 57 58 59 59 60 60 59 60 61 62 62 62 63 63 63 62 61 60 60 60 60 59 60 61 61 61 61 62 62 62 62 62
20 18 14 12 33 16 16 14 15 14 14 14 16 14 12 11 12 6 13 6 5 10 13 19 23 31 35 38 46 48 49 49 50 50 50 50 50 51 51 52 52 51 51 51 51 52 52 53 53 54 56 57 57 57 57 58 59 59 59 59 58 59 61 61 61 61 62 62 61 60 60 60 61 61 61 61 60 61 61 61 61 61 61 61 61 62
18 21 18 13 15 23 15 13 15 12 15 12 12 15 11 7 6 2 10 10 12 13 18 16 24 30 38 44 48 48 49 50 50 50 50 50 50 50 50 50 50 49 49 49 49 50 50 51 52 53 54 55 57 58 58 58 59 59 58 59 58 58 60 61 60 61 61 61 59 60 60 60 61 61 61 61 61 61 61 60 61 61 61 61 61 62
11 12 15 15 13 17 15 15 14 18 14 11 14 11 14 14 10 3 10 3 7 10 16 22 18 30 33 38 48 50 50 51 50 49 49 49 49 49 49 49 49 49 48 48 49 49 49 50 50 51 52 53 54 56 58 59 59 58 58 59 58 58 59 60 60 61 60 60 60 60 60 61 61 61 61 61 61 61 61 60 60 61 62 62 62 62
14 17 19 18 15 16 15 18 17 15 13 16 16 13 12 13 20 12 17 16 15 14 13 27 22 34 38 46 49 50 49 49 48 48 48 47 47 47 47 47 47 48 48 48 48 48 48 49 49 49 50 51 52 53 54 55 57 58 58 59 58 58 58 60 61 61 60 59 60 59 60 61 61 62 61 61 60 61 62 61 61 61 61 60 60 61
14 16 18 20 19 16 15 19 18 14 13 20 12 13 16 18 16 15 14 20 14 15 9 22 36 40 44 45 45 48 47 48 48 47 46 46 46 46 46 46 46 46 47 47 46 46 46 47 47 48 48 49 50 50 51 53 54 57 58 58 58 59 59 60 61 60 60 60 60 60 61 61 61 61 61 60 60 60 61 62 62 61 61 61 61 61
16 17 20 15 13 15 18 18 17 17 19 14 14 14 18 21 21 16 10 13 9 8 10 26 33 35 35 32 45 46 46 47 46 46 45 45 45 44 44 45 45 45 45 45 45 46 46 46 46 47 47 48 48 49 50 51 53 55 57 58 58 58 59 59 60 60 60 60 60 60 60 61 61 61 61 60 60 60 60 61 60 61 61 61 61 62
17 12 15 18 16 19 17 15 15 16 17 14 16 17 14 11 10 19 15 5 4 3 10 29 32 35 37 35 42 44 44 45 45 44 43 43 43 43 44 44 44 44 44 44 44 44 45 45 45 46 46 47 48 48 49 50 52 53 54 56 57 59 59 59 60 60 61 61 60 60 60 61 61 61 60 60 60 60 60 60 60 60 61 61 61 61
27 13 18 22 25 24 26 19 17 21 16 25 20 22 26 21 20 12 13 15 13 5 17 26 31 31 40 40 44 44 45 45 44 43 43 43 43 43 43 43 43 43 44 44 44 44 44 44 44 45 46 46 47 48 48 49 50 51 52 53 55 56 58 60 60 60 60 60 61 61 61 62 62 61 60 60 60 60 60 60 60 60 60 61 61 61
14 23 12 20 28 26 25 29 27 24 17 16 24 26 23 26 24 20 24 14 13 9 8 21 22 29 37 45 45 45 45 45 44 43 42 42 43 43 43 43 43 43 43 43 43 43 43 43 44 44 45 45 46 47 47 48 49 49 50 51 52 53 55 56 58 60 60 60 61 61 61 61 62 61 61 60 60 60 60 60 60 60 60 61 61 61
25 24 16 25 29 29 31 32 33 31 25 28 30 29 25 23 15 13 13 25 25 19 14 16 16 29 42 47 45 44 45 44 44 42 42 42 42 42 42 42 42 42 42 42 42 42 43 43 43 44 44 45 45 45 46 47 47 47 48 49 50 50 52 54 55 57 60 61 61 61 61 61 62 61 61 60 60 60 60 60 60 60 60 60 61 61
27 29 28 28 27 29 31 33 35 36 37 36 36 34 31 28 21 19 15 18 26 28 26 25 28 31 44 45 43 43 43 43 42 42 41 42 42 42 42 42 42 42 41 41 41 42 42 42 43 43 43 43 44 44 45 45 45 46 46 47 47 49 50 50 53 55 58 61 61 61 61 62 62 61 61 60 60 59 60 60 60 61 60 60 61 61
49 28 27 27 28 31 31 31 32 35 35 34 35 37 36 31 30 24 22 25 24 25 22 22 26 31 42 44 42 42 42 42 41 41 41 41 41 41 41 41 41 41 41 41 41 41 41 42 42 42 42 42 43 43 43 44 44 44 45 45 46 46 47 49 50 52 56 59 60 60 60 60 61 61 60 60 60 59 59 60 60 61 61 61 61 61
22 24 26 24 23 23 26 28 27 30 34 33 32 35 37 35 33 32 30 28 25 27 23 21 22 31 41 44 43 42 41 40 40 41 41 41 41 41 41 41 40 40 40 40 40 40 40 40 40 41 41 41 42 42 43 43 43 43 44 44 44 45 46 47 48 50 54 58 60 60 60 60 60 60 60 59 59 59 58 59 60 61 61 61 61 61
30 29 27 22 20 15 15 16 18 23 30 32 36 37 37 36 34 28 20 24 21 24 26 25 28 36 41 42 41 41 41 40 40 40 40 40 40 40 40 39 39 39 39 39 39 39 39 39 40 40 40 41 41 41 42 42 42 43 43 43 44 44 45 46 47 48 52 56 59 59 59 59 60 60 60 59 59 58 58 58 59 59 60 61 60 59
34 33 28 25 22 22 24 26 30 33 31 32 34 36 36 36 34 29 26 22 20 26 28 33 35 35 37 38 38 39 39 39 39 39 39 39 39 39 38 38 37 37 37 38 38 38 38 38 38 38 39 39 40 40 41 42 42 42 42 43 43 44 45 45 46 47 49 51 56 59 59 59 60 59 59 59 59 59 59 59 59 59 60 60 59 59
33 32 34 34 33 31 33 35 35 37 36 36 35 34 36 37 37 36 26 25 28 27 23 35 37 34 35 37 37 37 38 39 39 38 38 38 38 38 37 36 37 36 36 37 37 37 36 37 37 37 37 38 38 39 40 41 41 42 42 42 43 44 44 45 46 46 47 49 51 53 58 59 59 59 58 59 59 59 59 59 59 59 59 59 59 58
33 31 34 36 36 37 37 37 37 36 36 36 36 36 35 36 37 35 36 37 29 21 27 36 35 33 34 36 37 38 38 38 38 38 39 39 37 37 36 35 35 34 35 35 35 36 36 36 36 36 37 37 37 37 38 39 40 41 41 42 42 43 44 44 45 45 46 47 48 49 51 56 58 57 58 59 59 59 59 59 59 58 58 58 58 58
33 32 33 36 35 35 36 36 36 35 35 35 35 36 36 35 36 36 36 36 36 35 36 34 34 33 35 36 38 38 39 38 37 36 36 36 36 36 35 35 35 34 34 35 35 35 36 36 36 36 37 37 37 37 37 38 39 40 40 41 42 42 43 44 44 45 45 46 46 48 49 51 56 58 57 58 58 59 59 59 58 58 58 58 58 58
33 30 36 35 33 33 35 35 34 34 34 33 34 35 35 35 35 36 36 36 35 34 34 33 32 31 36 38 38 38 37 36 35 34 34 35 35 35 35 35 35 34 34 35 35 35 36 36 36 36 37 37 37 37 38 38 39 39 40 40 41 42 43 44 44 44 45 45 46 47 48 49 51 56 57 58 58 59 58 58 58 58 58 58 58 56
32 29 33 32 31 31 33 33 33 34 33 33 33 34 34 34 32 33 33 36 34 32 33 32 31 30 35 37 37 37 37 36 35 35 34 33 33 34 34 35 34 34 34 35 35 36 36 36 36 37 37 37 38 38 38 38 39 39 39 40 41 42 42 43 43 44 44 45 46 46 47 48 50 52 56 57 58 58 58 58 58 57 57 57 56 53
29 29 26 29 30 30 33 33 32 31 30 29 31 34 34 34 35 35 35 36 37 36 33 32 30 34 35 36 34 34 34 34 34 36 36 35 33 32 32 32 32 33 34 34 35 35 35 36 36 37 37 37 38 38 39 39 39 39 39 40 41 41 42 42 43 43 44 45 45 46 47 47 48 49 53 57 58 58 57 57 57 57 56 56 55 51
31 31 27 29 29 31 33 33 31 26 21 24 35 37 38 33 34 32 32 35 36 36 34 35 35 36 36 35 33 33 33 34 35 36 37 37 37 35 32 31 32 32 33 33 33 34 34 35 35 36 36 37 38 38 39 39 39 40 40 41 41 41 41 42 42 43 43 44 45 46 46 47 47 48 49 54 57 56 56 57 57 56 55 53 50 47
29 28 25 25 30 30 31 28 25 19 21 34 37 35 35 35 34 34 34 35 35 35 35 35 35 35 34 34 34 34 35 35 35 35 35 35 37 36 35 34 33 33 32 32 32 33 33 34 34 35 35 36 38 38 39 39 39 39 40 40 41 41 41 42 42 42 43 44 45 45 46 46 47 47 48 48 53 55 55 56 56 54 51 50 48 45
24 28 23 24 23 28 28 24 22 20 32 35 36 36 36 35 34 34 32 34 36 36 35 34 34 34 34 34 34 34 34 34 34 35 36 36 35 35 35 36 37 37 35 35 34 33 34 34 34 34 35 37 37 37 38 38 39 39 39 40 41 41 41 41 42 42 43 43 44 45 45 46 46 46 46 47 48 52 53 54 52 49 48 47 46 45
30 28 27 25 27 28 27 28 27 32 32 34 34 35 37 34 35 33 29 31 35 37 36 34 34 34 33 34 34 33 32 32 32 33 37 37 36 35 35 36 36 37 37 37 37 36 35 35 35 35 37 35 36 36 37 38 39 39 39 39 40 40 40 41 41 42 42 43 44 45 45 45 46 46 46 46 46 47 49 49 47 46 46 45 45 44
31 28 26 26 23 25 27 25 27 25 23 29 34 38 38 38 39 38 32 30 35 36 37 35 34 33 34 34 33 33 35 30 29 31 35 37 37 37 36 36 36 36 37 37 37 36 35 36 36 36 36 35 36 36 37 37 37 38 37 38 38 38 39 40 41 41 42 42 44 44 45 45 45 46 46 46 46 46 46 47 47 46 46 45 44 44
29 29 29 28 26 26 25 24 23 22 23 32 34 36 38 38 40 38 32 28 34 35 37 36 34 34 34 34 34 37 34 28 28 31 36 38 38 38 38 38 38 38 38 38 38 38 36 36 36 37 36 35 35 36 37 37 36 36 36 36 36 37 37 39 40 41 41 42 43 44 45 45 45 45 46 46 46 46 46 46 46 46 46 45 44 43
28 24 24 26 21 19 21 22 22 23 24 32 34 36 37 39 39 35 26 26 33 34 36 37 35 34 35 36 37 35 32 27 28 32 37 39 40 40 40 39 39 39 39 39 39 40 38 37 35 34 35 35 35 36 36 36 35 36 35 35 35 35 36 37 39 40 41 41 42 43 44 45 45 45 45 46 46 47 47 46 45 45 44 43 43 43
24 22 23 21 17 22 24 24 26 28 33 35 36 37 39 39 36 28 24 28 34 34 35 37 36 36 36 36 36 31 32 33 34 37 38 39 39 39 40 41 41 41 40 40 40 41 39 38 37 35 35 35 35 36 36 36 36 35 35 35 34 35 35 36 37 39 39 40 40 41 42 44 44 44 45 46 46 47 47 47 45 44 43 43 43 43
24 23 22 20 21 19 21 24 24 28 32 35 36 38 40 36 27 26 31 35 35 34 35 35 35 35 35 34 34 34 35 37 38 39 38 38 38 39 40 40 40 41 41 41 41 41 40 39 38 37 36 36 35 35 36 36 35 35 34 34 34 35 35 35 36 37 37 37 38 40 41 42 43 44 45 45 46 46 46 46 46 45 44 44 43 42
25 24 20 17 19 16 14 19 20 19 30 36 36 37 36 31 30 33 35 35 35 35 35 35 35 35 35 35 35 36 36 37 38 38 38 38 38 38 39 39 39 40 40 40 40 40 41 39 37 37 36 36 35 35 36 36 35 35 34 33 34 35 35 35 36 36 36 36 36 38 40 41 41 42 44 44 45 44 45 46 46 45 45 44 43 43
32 22 18 17 21 21 17 18 21 30 32 36 36 31 33 35 36 37 36 34 35 35 34 34 35 35 35 35 35 36 37 37 37 38 38 38 38 38 39 39 39 40 40 40 41 40 41 39 38 37 35 34 35 35 36 36 35 35 34 33 36 35 35 35 35 35 35 36 35 35 36 38 40 41 42 43 44 44 44 44 45 45 45 44 44 43
31 29 28 26 30 22 23 28 33 35 36 36 36 36 36 36 36 37 37 36 36 35 36 35 35 35 35 36 36 36 36 37 37 38 38 38 38 38 38 38 39 39 40 40 40 40 40 39 39 38 36 33 33 35 35 35 35 34 33 34 36 35 34 34 35 35 35 35 35 34 33 34 36 39 40 41 42 42 42 43 43 44 44 44 43 43
35 34 34 32 31 34 35 35 36 35 35 35 37 37 36 36 36 37 35 34 35 36 36 35 35 36 36 36 36 37 37 37 37 38 38 38 38 38 39 39 39 39 39 40 39 39 39 40 39 38 36 34 32 34 36 36 35 34 35 35 35 34 34 34 34 34 34 34 35 34 33 33 33 34 37 39 41 40 41 41 42 42 43 44 43 43
35 35 33 31 32 29 25 34 34 34 34 35 36 37 36 36 36 37 35 35 35 36 36 36 36 36 36 36 36 36 37 38 38 38 38 38 38 38 38 38 38 38 38 38 38 39 38 37 35 34 35 33 31 32 35 36 36 36 36 35 34 34 34 34 34 34 34 34 35 35 34 33 34 34 34 35 38 40 40 39 39 40 40 42 43 43
30 32 30 31 30 29 29 33 33 34 34 35 36 36 35 35 36 36 36 36 37 37 37 37 37 37 37 37 37 37 37 37 37 36 36 37 37 37 37 37 37 37 38 37 37 36 35 34 33 34 34 32 31 31 33 35 35 35 36 36 35 34 33 34 34 33 33 33 34 35 35 34 33 33 34 34 34 35 37 38 38 37 36 36 38 41
32 34 26 29 30 32 33 34 34 33 33 34 35 35 35 35 36 36 37 37 37 37 36 36 36 37 36 36 36 36 35 35 35 35 35 34 33 33 33 34 34 35 35 34 33 32 30 30 30 31 31 31 32 32 32 33 35 36 35 36 36 34 33 33 33 33 33 33 33 34 35 34 33 33 33 34 34 34 34 35 37 38 38 38 37 38
30 29 30 30 28 28 29 31 32 29 29 32 33 34 35 36 37 37 37 37 36 36 35 35 36 36 36 35 34 34 33 32 32 32 32 31 31 31 31 32 32 33 33 32 30 26 26 30 31 29 30 30 31 32 32 32 33 35 35 36 36 35 33 33 33 32 33 33 32 33 34 35 34 33 33 33 33 34 34 34 35 35 36 36 36 35
30 30 29 26 27 26 31 34 33 31 32 33 34 35 36 36 36 36 36 36 36 36 36 36 35 34 34 34 34 33 31 31 31 31 31 31 31 31 31 31 32 32 31 30 26 25 26 27 30 29 29 30 32 31 32 32 32 34 35 36 35 34 33 32 32 32 32 33 32 32 33 33 33 34 33 33 33 33 33 34 34 34 35 35 35 35